Miscellaneous Local Product
Issued by NWS North Platte, NE

Home | Current Version | Previous Version | Graphics & Text | Print | Product List | Glossary On
Versions: 1 2 3 4 5 6 7 8 9 10 11 12 13 14 15 16 17 18 19 20 21 22 23 24 25 26 27 28 29 30 31 32 33 34 35 36 37 38 39 40 41 42 43 44 45 46 47 48 49 50
065
AXUS43 KLBF 060410
MISLBF


WESTERN AND NORTH CENTRAL NEBRASKA HOURLY WEATHER ROUNDUP
NATIONAL WEATHER SERVICE NORTH PLATTE NE
1000 PM CST FRI FEB 05 2016

NOTE: "FAIR" INDICATES FEW OR NO CLOUDS BELOW 12,000 FEET WITH NO
SIGNIFICANT WEATHER AND/OR OBSTRUCTIONS TO VISIBILITY.

NOTE: STATIONS NOT REPORTING VARIABLES SUCH AS SKY/WEATHER OR
PRESSURE ARE PROVIDED BY THE NEBRASKA DEPARTMENT OF
ROADS...RAWS...AND APRS NETWORKS...AND ARE NOT UNDER
NATIONAL WEATHER SERVICE QUALITY CONTROL.

...OBSERVATIONS IN AND NEAR THE EASTERN PANHANDLE OF NEBRASKA...

CITY           SKY/WX    TMP DP  RH WIND       PRES   REMARKS
PINE RIDGE     CLEAR     26  17  68 W6        30.21S WCI  19
CHADRON        CLOUDY    22  15  75 W5        30.23R WCI  16
ALLIANCE       CLOUDY    13   9  84 W10       30.23R WCI   0
SIDNEY         CLOUDY    21  13  71 NW17      30.26S WCI   7
CRESCENT LAKE    N/A     21  15  76 NW7         N/A  WCI  12
$$

...OBSERVATIONS IN NORTH CENTRAL NEBRASKA...

CITY           SKY/WX    TMP DP  RH WIND       PRES   REMARKS
VALENTINE      CLEAR     23  20  88 W8        30.20S WCI  14
THEDFORD       CLEAR     20  18  92 SW5       30.23S WCI  14
AINSWORTH      CLEAR     23  20  90 SW5       30.21S WCI  17
O`NEILL        CLEAR     27  26  94 W6        30.23S WCI  21
ORD            CLEAR     30  25  81 NW3       30.24R
BROKEN BOW     CLEAR     21  18  88 CALM      30.24S
VALENTINE NWR    N/A     20  17  88 CALM        N/A
BUTTE            N/A     27  25  93 SW3         N/A
HALSEY           N/A     25  22  87 SW3         N/A
CHAMBERS         N/A     25  21  83 CALM        N/A
EWING            N/A     28  26  92 CALM        N/A
$$

...OBSERVATIONS IN SOUTHWEST NEBRASKA AND FAR NORTHEAST COLORADO...

CITY           SKY/WX    TMP DP  RH WIND       PRES   REMARKS
WRAY           FAIR      20  13  75 W6        30.29S WCI  13
HOLYOKE        FAIR      28  16  59 NW14G21   30.27S WCI  17
IMPERIAL       CLEAR     25  15  66 NW16      30.26F WCI  12
OGALLALA       CLEAR     23  14  69 W5        30.27S WCI  17
NORTH PLATTE   CLEAR     17  15  92 NW6       30.26R WCI   9
MCCOOK         CLEAR     23  18  81 W12       30.28R WCI  12
LEXINGTON      CLEAR     20  17  88 W6        30.27R WCI  13
PAXTON           N/A     23  19  83 W3          N/A
STAPLETON        N/A     21  19  91 CALM        N/A
GOTHENBURG       N/A     24  20  84 CALM        N/A
CALLAWAY         N/A     16  14  93 CALM        N/A
$$

...OBSERVATIONS IN CENTRAL LINCOLN COUNTY AREA...

CITY           SKY/WX    TMP DP  RH WIND       PRES   REMARKS
N.P. AIRPORT   CLEAR     17  15  92 NW6       30.26R WCI   9
N.P. DOWNTOWN    N/A     24  22  90 CALM        N/A
N.P. SOUTHEAST   N/A     24  21  87 CALM        N/A
N.P. HILLCREST   N/A     24  21  89 CALM        N/A
$$

...SOME OBSERVATIONS FROM AROUND THE REGION...

CITY           SKY/WX    TMP DP  RH WIND       PRES   REMARKS
DENVER         CLOUDY    15   4  61 S15       30.27S WCI   0
LARAMIE        CLOUDY    15   4  61 W9        30.27R WCI   3
CHEYENNE       CLOUDY    25   7  46 W25       30.23S WCI   9
SCOTTSBLUFF    CLOUDY    16  11  80 NW5       30.26S WCI   9
RAPID CITY     CLEAR     22  16  78 CALM      30.15F
BISMARCK       CLEAR     27  22  81 CALM      30.06F
PIERRE         CLEAR     30  24  78 SW8       30.15F WCI  22
WINNER         FAIR      29  21  72 SW8       30.19F WCI  21
SIOUX FALLS    CLOUDY    26  24  92 CALM      30.20S FOG
OMAHA          MOCLDY    28  27  96 S5        30.25R FOG     WCI  23
GRAND ISLAND   MOCLDY    34  27  75 NW14      30.25S WCI  25
KANSAS CITY    MOCLDY    33  25  72 SE6       30.27S WCI  28
WICHITA        MOCLDY    38  23  55 NW10      30.27S WCI  31
OKLAHOMA CITY  CLOUDY    47  28  47 S7        30.26R
LIBERAL        CLEAR     21  12  68 NW7       30.31S WCI  13
HAYS           MOCLDY    28  18  64 NW8       30.28R WCI  20
GOODLAND       CLEAR     19  13  77 NW9       30.28S WCI   8
$$




USA.gov is the U.S. government's official web portal to all federal, state and local government web resources and services.